Location: Anaheim
(33.8350°N, 117.9140°W)
Time: 20:50:00
(UTC-07:00)

Amateur Radio Satellites - All Passes

Search period start: 16 April 2014 20:19
Search period end: 17 April 2014 20:19
Location: Anaheim, 33.8350°N, 117.9140°W

Satellite Date Start Highest point End Downlink Frequencies (MHz)
Time Altitude Azimuth
Saudisat 1A 16 Apr 20:39:13 20:43:15 34° 56° (NE) 20:47:14 436.775 MHz
HO-68 16 Apr 20:44:31 20:51:20 51° 69° (ENE) 20:58:10 435.675 MHz FM
Oscar 11 16 Apr 21:25:51 21:29:44 34° 73° (ENE) 21:33:39 145.825 FM, Beacon 2401.500 USB
MaSat-1 16 Apr 22:11:12 22:14:27 75° 293° (WNW) 22:17:14 437.345 MHz
Saudisat 1A 16 Apr 22:19:31 22:22:34 19° 250° (WSW) 22:25:36 436.775 MHz
HO-68 16 Apr 22:33:31 22:39:12 26° 264° (W) 22:44:56 435.675 MHz FM
FUNcube-1 16 Apr 22:43:01 22:47:17 85° 77° (ENE) 22:51:29 145.950 - 145.970 MHz USB
Oscar 11 16 Apr 23:03:23 23:06:00 16° 266° (W) 23:08:39 145.825 FM, Beacon 2401.500 USB
ISS 16 Apr 23:14:01 23:17:13 39° 39° (NE) 23:20:23 145.800 FM
SO-50 17 Apr 00:21:12 00:23:53 15° 49° (NE) 00:26:36 436.795 FM
Sapphire 17 Apr 00:31:31 00:36:21 34° 109° (ESE) 00:41:12 437.095 MHz 1200 baud AX-25 AFSK
Oscar 10/S400 17 Apr 00:45:18 00:57:01 17° 137° (SE) 01:11:43 145.825 - 145.975 CW/USB, Beacon 145.810 USB
ISS 17 Apr 00:51:40 00:53:42 15° 233° (SW) 00:55:43 145.800 FM
Oscar 16 17 Apr 01:12:41 01:15:05 13° 92° (E) 01:17:29 437.025 USB, Beacon 2401.1428
PCSat 17 Apr 01:15:59 01:21:23 83° 296° (WNW) 01:26:49 145.825 MHz
OPAL 17 Apr 01:28:46 01:31:20 14° 62° (ENE) 01:33:55 ?
Uribyol 2 17 Apr 01:42:54 01:45:15 13° 93° (E) 01:47:35 436.500 FM
SO-50 17 Apr 02:00:12 02:04:48 59° 244° (WSW) 02:09:26 436.795 FM
Sapphire 17 Apr 02:15:11 02:19:45 27° 304° (NW) 02:24:21 437.095 MHz 1200 baud AX-25 AFSK
AO-27 17 Apr 02:19:46 02:24:21 32° 98° (E) 02:28:56 436.795 MHz FM
KITSAT 1 17 Apr 02:20:06 02:27:02 32° 106° (ESE) 02:33:59 435.175 FM
ITAMSAT 1 17 Apr 02:30:59 02:35:51 41° 99° (E) 02:40:41 435.822 SSB
Oscar 19 17 Apr 02:41:47 02:46:59 77° 284° (WNW) 02:52:10 437.125 CW, 437.150 USB
TMSAT-1 17 Apr 02:49:17 02:50:52 11° 91° (E) 02:52:27 436.925 FM
Oscar 16 17 Apr 02:49:39 02:54:45 59° 286° (WNW) 02:59:50 437.025 USB, Beacon 2401.1428
UOSAT-12 17 Apr 02:58:50 03:02:58 29° 54° (NE) 03:07:03 437.025 FM, 437.400 FM
PCSat 17 Apr 03:04:10 03:05:36 11° 313° (NW) 03:07:02 145.825 MHz
OPAL 17 Apr 03:04:46 03:09:39 59° 257° (WSW) 03:14:39 ?
AO-Echo 17 Apr 03:05:23 03:10:11 75° 102° (ESE) 03:14:52 ?
Uribyol 2 17 Apr 03:19:57 03:25:02 59° 286° (WNW) 03:30:06 436.500 FM
Gurwin Techsat 1B 17 Apr 03:36:02 03:41:15 54° 100° (E) 03:46:25 435.225 FM
AO-27 17 Apr 03:59:30 04:03:41 25° 292° (WNW) 04:07:51 436.795 MHz FM
ITAMSAT 1 17 Apr 04:11:19 04:15:01 20° 293° (WNW) 04:18:42 435.822 SSB
KITSAT 1 17 Apr 04:14:17 04:22:04 49° 303° (WNW) 04:29:55 435.175 FM
TMSAT-1 17 Apr 04:25:56 04:31:12 69° 285° (WNW) 04:36:26 436.925 FM
UOSAT-12 17 Apr 04:39:05 04:42:59 26° 249° (WSW) 04:46:51 437.025 FM, 437.400 FM
JAS-1B 17 Apr 04:42:05 04:47:44 68° 102° (ESE) 04:53:39 435.800 - 435.900 CW/SSB
AO-7 17 Apr 04:56:31 05:04:32 50° 102° (ESE) 05:12:31 29.400 - 29.500 MHz
Uosat F 17 Apr 04:59:54 05:04:55 88° 284° (WNW) 05:09:54 435.120 FM
Gurwin Techsat 1B 17 Apr 05:17:34 05:20:43 16° 295° (WNW) 05:23:51 435.225 FM
STRAND 1 17 Apr 05:40:26 05:43:41 17° 66° (ENE) 05:46:55 ?
Hamsat 17 Apr 06:14:29 06:17:42 20° 95° (E) 06:20:54 145.90 MHz
KITSAT 1 17 Apr 06:18:05 06:19:40 11° 326° (NW) 06:21:16 435.175 FM
RS-15 17 Apr 06:24:34 06:35:08 45° 109° (ESE) 06:45:18 29.354 - 29.394 USB, Beacon 29.352 USB
JAS-1B 17 Apr 06:35:32 06:37:48 13° 298° (WNW) 06:40:06 435.800 - 435.900 CW/SSB
AO-7 17 Apr 06:49:51 06:56:56 33° 298° (WNW) 07:04:03 29.400 - 29.500 MHz
STRAND 1 17 Apr 07:17:31 07:22:27 48° 260° (W) 07:27:23 ?
JAS-2 17 Apr 07:22:27 07:27:25 35° 99° (E) 07:32:49 435.800 - 435.900 CW/SSB, 435.910 FM
SO-67 17 Apr 07:44:44 07:48:02 38° 98° (E) 07:51:18 435.3500 MHz FM
Hamsat 17 Apr 07:49:55 07:53:38 28° 288° (WNW) 07:57:21 145.90 MHz
MaSat-1 17 Apr 08:16:05 08:19:09 60° 248° (WSW) 08:22:48 437.345 MHz
RS-15 17 Apr 08:36:32 08:47:19 48° 307° (NW) 08:57:49 29.354 - 29.394 USB, Beacon 29.352 USB
JAS-2 17 Apr 09:08:03 09:12:22 25° 291° (WNW) 09:16:59 435.800 - 435.900 CW/SSB, 435.910 FM
Sapphire 17 Apr 09:24:38 09:27:23 14° 49° (NE) 09:30:08 437.095 MHz 1200 baud AX-25 AFSK
PANSAT 17 Apr 09:36:40 09:39:45 23° 165° (SSE) 09:42:50 not established
HO-68 17 Apr 10:03:33 10:10:45 76° 104° (ESE) 10:17:55 435.675 MHz FM
PCSat 17 Apr 10:08:10 10:13:06 34° 58° (ENE) 10:18:00 145.825 MHz
FUNcube-1 17 Apr 10:36:47 10:40:03 21° 96° (E) 10:43:22 145.950 - 145.970 MHz USB
Saudisat 1A 17 Apr 10:42:45 10:46:15 23° 111° (ESE) 10:49:45 436.775 MHz
Oscar 11 17 Apr 10:53:00 10:57:20 65° 284° (WNW) 11:01:38 145.825 FM, Beacon 2401.500 USB
RS-15 17 Apr 10:58:19 11:03:25 14° 336° (NNW) 11:08:30 29.354 - 29.394 USB, Beacon 29.352 USB
Sapphire 17 Apr 11:05:59 11:11:24 77° 246° (WSW) 11:16:47 437.095 MHz 1200 baud AX-25 AFSK
PANSAT 17 Apr 11:16:01 11:19:35 36° 177° (S) 11:23:09 not established
PCSat 17 Apr 11:51:52 11:56:19 27° 253° (WSW) 12:00:45 145.825 MHz
HO-68 17 Apr 11:53:06 11:57:39 18° 300° (WNW) 12:02:11 435.675 MHz FM
KITSAT 1 17 Apr 12:11:41 12:19:19 43° 56° (NE) 12:26:53 435.175 FM
FUNcube-1 17 Apr 12:12:54 12:16:24 25° 289° (WNW) 12:19:57 145.950 - 145.970 MHz USB
Oscar 19 17 Apr 12:20:20 12:21:15 10° 62° (ENE) 12:22:10 437.125 CW, 437.150 USB
Saudisat 1A 17 Apr 12:21:44 12:25:40 30° 305° (NW) 12:29:37 436.775 MHz
Oscar 16 17 Apr 12:26:26 12:28:59 14° 64° (ENE) 12:31:31 437.025 USB, Beacon 2401.1428
PANSAT 17 Apr 12:56:05 12:59:29 29° 190° (S) 13:02:52 not established
Uribyol 2 17 Apr 12:57:24 13:00:07 15° 65° (ENE) 13:02:51 436.500 FM
RS-15 17 Apr 13:19:52 13:23:12 12° 17° (NNE) 13:26:33 29.354 - 29.394 USB, Beacon 29.352 USB
AO-27 17 Apr 13:34:15 13:38:51 33° 70° (ENE) 13:43:28 436.795 MHz FM
ITAMSAT 1 17 Apr 13:45:15 13:50:06 42° 72° (ENE) 13:54:58 435.822 SSB
Oscar 10/S400 17 Apr 13:45:59 15:12:22 25° 270° (W) 18:03:38 145.825 - 145.975 CW/USB, Beacon 145.810 USB
Oscar 19 17 Apr 13:54:44 13:59:51 79° 257° (WSW) 14:05:01 437.125 CW, 437.150 USB
Oscar 16 17 Apr 14:02:43 14:07:46 60° 259° (W) 14:12:52 437.025 USB, Beacon 2401.1428
TMSAT-1 17 Apr 14:06:15 14:08:43 14° 64° (ENE) 14:11:12 436.925 FM
KITSAT 1 17 Apr 14:07:18 14:14:31 37° 253° (WSW) 14:21:41 435.175 FM
AO-Echo 17 Apr 14:13:51 14:19:05 65° 75° (ENE) 14:24:13 ?
Uribyol 2 17 Apr 14:33:59 14:39:04 58° 259° (W) 14:44:09 436.500 FM
PANSAT 17 Apr 14:37:22 14:39:11 13° 202° (SSW) 14:41:01 not established
Gurwin Techsat 1B 17 Apr 14:53:15 14:58:27 58° 74° (ENE) 15:03:39 435.225 FM
AO-27 17 Apr 15:14:12 15:18:21 24° 264° (W) 15:22:31 436.795 MHz FM
OPAL 17 Apr 15:18:24 15:23:30 52° 102° (ESE) 15:28:34 ?
JAS-1B 17 Apr 15:21:29 15:29:28 47° 71° (ENE) 15:36:13 435.800 - 435.900 CW/SSB
ITAMSAT 1 17 Apr 15:26:08 15:29:43 19° 265° (W) 15:33:19 435.822 SSB
RS-15 17 Apr 15:30:15 15:40:11 38° 48° (NE) 15:50:17 29.354 - 29.394 USB, Beacon 29.352 USB
TMSAT-1 17 Apr 15:42:48 15:48:02 65° 259° (WSW) 15:53:18 436.925 FM
AO-7 17 Apr 15:51:14 15:59:03 48° 66° (ENE) 16:06:51 29.400 - 29.500 MHz
ISS 17 Apr 15:53:42 15:57:01 69° 317° (NW) 16:00:22 145.800 FM
AO-Echo 17 Apr 15:56:08 15:58:09 12° 268° (W) 16:00:11 ?
Uosat F 17 Apr 16:09:12 16:14:14 84° 76° (ENE) 16:19:16 435.120 FM
SO-50 17 Apr 16:11:32 16:15:59 69° 300° (WNW) 16:20:28 436.795 FM
Gurwin Techsat 1B 17 Apr 16:36:05 16:38:43 14° 268° (W) 16:41:22 435.225 FM
OPAL 17 Apr 16:58:38 17:01:55 17° 297° (WNW) 17:05:11 ?
UOSAT-12 17 Apr 17:07:17 17:10:34 20° 109° (ESE) 17:13:54 437.025 FM, 437.400 FM
JAS-1B 17 Apr 17:12:34 17:19:58 32° 261° (W) 17:26:25 435.800 - 435.900 CW/SSB
ISS 17 Apr 17:33:52 17:34:18 10° 334° (NNW) 17:34:44 145.800 FM
RS-15 17 Apr 17:42:16 17:52:54 59° 249° (WSW) 18:03:55 29.354 - 29.394 USB, Beacon 29.352 USB
AO-7 17 Apr 17:44:44 17:51:54 33° 262° (W) 17:59:08 29.400 - 29.500 MHz
Hamsat 17 Apr 18:38:57 18:43:05 63° 259° (W) 18:47:17 145.90 MHz
UOSAT-12 17 Apr 18:46:17 18:50:26 35° 305° (NW) 18:54:42 437.025 FM, 437.400 FM
JAS-2 17 Apr 19:15:04 19:21:14 84° 76° (ENE) 19:26:45 435.800 - 435.900 CW/SSB, 435.910 FM
STRAND 1 17 Apr 19:31:53 19:36:59 80° 103° (ESE) 19:42:05 ?
SO-67 17 Apr 19:47:29 19:50:51 46° 261° (W) 19:54:14 435.3500 MHz FM
